Regional Weather Roundup
Issued by NWS

Home | Current Version | Previous Version | Text Only | Print | Product List | Glossary Off
Versions: 1 2 3 4 5 6 7 8 9 10 11 12 13 14 15 16 17 18 19 20 21 22 23 24 25 26 27 28 29 30 31 32 33 34 35 36 37 38 39 40 41 42 43 44 45 46 47 48 49 50

897
ASUS43 KFSD 242010
RWRSD

WEATHER ROUNDUP FOR SOUTH DAKOTA
NATIONAL WEATHER SERVICE SIOUX FALLS SD
200 PM CST TUE JAN 24 2017

NOTE: "FAIR" INDICATES FEW OR NO CLOUDS BELOW 12,000 FEET WITH NO
SIGNIFICANT WEATHER AND/OR OBSTRUCTIONS TO VISIBILITY.


SDZ001>005-009-010-012>017-242100-
NORTHWEST AND NORTH CENTRAL SOUTH DAKOTA

CITY           SKY/WX    TMP DP  RH WIND       PRES   REMARKS
BUFFALO          N/A     21  16  81 NW21      29.76F WCI   5
FAITH            N/A     22  20  92 N17       29.80F WCI   8
MOBRIDGE       LGT SNOW  24  18  77 N15       29.81F WCI  11
$$

SDZ012>016-024>037-041>051-057-063-072>074-242100-
SOUTHWEST AND SOUTH CENTRAL SOUTH DAKOTA

CITY           SKY/WX    TMP DP  RH WIND       PRES   REMARKS
RAPID CTY ARPT SNOW      21  19  92 N21       29.77F VSB 1/2 WCI   5
PIERRE         SNOW      27  25  92 NE16      29.76F VSB 1/2 WCI  15
CUSTER         HVY SNOW  16  11  80 N5        29.62F VSB 1/4 WCI   9
ELLSWORTH AFB  LGT SNOW  21  21  99 N12       29.77  FOG     WCI   9
PINE RIDGE     SNOW      22  20  92 N12       29.70F VSB 1/2 WCI  10
SPEARFISH      LGT SNOW  19  19 100 W5        29.78F VSB 1   WCI  13
WINNER         SNOW      31  29  92 NE16      29.66F VSB 1/4 WCI  20
$$

SDZ004>011-016>023-039-040-242100-
NORTHEAST SOUTH DAKOTA

CITY           SKY/WX    TMP DP  RH WIND       PRES   REMARKS
ABERDEEN       LGT SNOW  28  24  85 N10       29.82S FOG     WCI  19
WATERTOWN      CLOUDY    29  25  85 NE12      29.74F WCI  19
BROOKINGS      CLOUDY    29  27  92 E12       29.74S WCI  19
SISSETON         N/A     31  28  89 NE10      29.80F WCI  22
$$

SDZ017-020-022-023-036>040-048>070-242100-
SOUTHEAST SOUTH DAKOTA

CITY           SKY/WX    TMP DP  RH WIND       PRES   REMARKS
SIOUX FALLS    CLOUDY    31  29  92 E15       29.71F WCI  20
HURON          FLURRIES  31  28  89 E9        29.76F WCI  23
CHAMBERLAIN    CLOUDY    32  32 100 NE10      29.71F FOG     WCI  24
MITCHELL       CLOUDY    32  30  92 E13       29.73F WCI  22
YANKTON          N/A     30  27  86 NE17      29.64F VSB 1/2 WCI  18
$$

ABBREVIATIONS USED IN REMARKS
   TC - TEMPERATURE IN CELSIUS
  WCI - WIND CHILL INDEX
   HX - HEAT INDEX
  VSB - VISIBILITY





USA.gov is the U.S. government's official web portal to all federal, state and local government web resources and services.